Погода в Абакумовке

Россия / Тамбовская область     52°07′50″N   41°09′07″E
темп.,
°C
ветер,
м/с
пор.,
м/с
влажн.,
%
обл.,
%
осадки,
мм/ч
давл.,
гПа
погр.,
м
22 апреля, чт
чт2200:00+6ю489417 0.1 1017165
03:00+5ююз4109127 0.2 1017231
06:00+4юз39945 0.0 1019287
09:00+9зюз46695 0.0 1021656
12:00+13юз465591 0.1 10211742
15:00+13юз354965 0.1 10211770
18:00+13ююз3556100 0.0 102189
21:00+11ююз3356100 0.0 102247
23 апреля, пт
пт2300:00+10ююв3462100 0.0 102163
03:00+10ююв3571100 0.0 102194
06:00+9ююв357692 0.0 102193
09:00+14ю455724 0.0 1021582
12:00+16ю5642100 0.3 10192379
15:00+16ююв444965 0.6 10181402
18:00+14юв566860 1.4 1017448
21:00+10юв410857 2.0 1017202
24 апреля, сб
сб2400:00+9ююв410895 0.4 1015186
03:00+8ююв498924 0.4 1013164
06:00+8ююз3886100 0.1 1012265
09:00+11ю4676100 0.3 1010574
12:00+10ююз101481100 2.1 10091511
15:00+6зсз5884100 2.6 1011793
18:00+7зюз3577100 0.1 1011667
21:00+6з5884100 1.8 1011705
25 апреля, вс
вс2500:00+4зюз499098 0.4 1011324
03:00+3з498886 0.5 1013251
06:00+3зюз410865 0.0 1014286
09:00+7з686999 0.1 1015980
12:00+9з8104999 0.8 10152211
15:00+10з71039100 0.9 10162686
18:00+8зюз694899 0.1 10161050
21:00+4юз37715 0.1 1018147
26 апреля, пн
пн2600:00+4юз367471 0.0 1018132
03:00+4ю357695 0.0 1017130
06:00+4юз3889100 0.7 1017522
09:00+5юз4794100 1.4 1017800
12:00+5юз359072 0.3 1016493
15:00+9з2357100 0.3 10131467
18:00+5ссв3391100 3.3 1012540
21:00+2сз36100100 13.4 1013326